Change the Weather History Date:

Sunday, October 21, 2012

  Actual Average Record
Temperature  
Mean Temperature 72 °F -  
Max Temperature 82 °F 80 °F 91 °F (2006)
Min Temperature 62 °F 64 °F 52 °F (2011)
Cooling Degree Days 7    
Growing Degree Days 22 (Base 50)    
Moisture  
Dew Point 53 °F    
Average Humidity 52    
Maximum Humidity 70    
Minimum Humidity 34    
Precipitation  
Precipitation 0.00 in - - ()
Sea Level Pressure  
Sea Level Pressure 30.04 in    
Wind  
Wind Speed 5 mph (NNE)    
Max Wind Speed 12 mph    
Max Gust Speed -    
Visibility 10 miles    
Events      
Averages and records for this station are not official NWS values.
T = Trace of Precipitation, MM = Missing Value Source: NWS Daily Summary

Daily Weather History Graph

Daily Weather History Graph

Search for Another Location

Airport or City:

Trip Planner

Search our weather history database for the weather conditions in past years. The results will help you decide how hot, cold, wet, or windy it might be!

Date:

Astronomy

Oct. 21, 2012 Rise Set
Actual Time 7:30 AM EDT 6:49 PM EDT
Civil Twilight 7:06 AM EDT 7:13 PM EDT
Nautical Twilight 6:38 AM EDT 7:40 PM EDT
Astronomical Twilight 6:11 AM EDT 8:08 PM EDT
Moon 1:40 PM EDT No Moon Set
Length of Visible Light 12h 06m
Length of Day
11h 19m
Waxing Crescent, 45% of the Moon is Illuminated
Oct 21
Waxing Crescent
Oct 21
First Quarter
Oct 29
Full
Nov 6
Last Quarter
Nov 13
New

Hourly Weather History & Observations

Time (EDT) Temp. Heat Index Dew Point Humidity Pressure Visibility Wind Dir Wind Speed Gust Speed Precip Events Conditions
12:53 AM 66.9 °F - 50.0 °F 54% 29.99 in 10.0 mi Calm Calm - N/A   Clear
1:53 AM 66.0 °F - 48.9 °F 54% 29.99 in 10.0 mi NNW 4.6 mph - N/A   Clear
2:53 AM 64.9 °F - 48.9 °F 56% 29.99 in 10.0 mi NNW 3.5 mph - N/A   Clear
3:53 AM 64.9 °F - 48.9 °F 56% 29.99 in 10.0 mi NNW 4.6 mph - N/A   Clear
4:53 AM 63.0 °F - 50.0 °F 63% 29.99 in 10.0 mi Calm Calm - N/A   Clear
6:53 AM 62.1 °F - 52.0 °F 70% 30.02 in 10.0 mi NNW 3.5 mph - N/A   Clear
7:53 AM 64.9 °F - 50.0 °F 58% 30.03 in 10.0 mi North 6.9 mph - N/A   Clear
8:53 AM 66.9 °F - 50.0 °F 54% 30.05 in 10.0 mi North 6.9 mph - N/A   Clear
9:53 AM 72.0 °F - 50.0 °F 46% 30.07 in 10.0 mi NNE 8.1 mph - N/A   Clear
10:53 AM 75.9 °F - 50.0 °F 40% 30.07 in 10.0 mi NNE 6.9 mph - N/A   Clear
11:53 AM 78.1 °F - 50.0 °F 37% 30.07 in 10.0 mi ENE 9.2 mph - N/A   Clear
12:53 PM 81.0 °F - 50.0 °F 34% 30.06 in 10.0 mi NE 9.2 mph - N/A   Clear
1:53 PM 81.0 °F - 52.0 °F 36% 30.04 in 10.0 mi NE 5.8 mph - N/A   Clear
2:53 PM 82.0 °F 81.3 °F 54.0 °F 38% 30.02 in 10.0 mi NNE 6.9 mph - N/A   Clear
3:53 PM 82.0 °F 81.3 °F 54.0 °F 38% 30.02 in 10.0 mi North 10.4 mph - N/A   Clear
4:53 PM 81.0 °F 80.7 °F 55.0 °F 41% 30.01 in 10.0 mi NE 11.5 mph - N/A   Clear
5:53 PM 78.1 °F - 55.9 °F 46% 30.02 in 10.0 mi NE 10.4 mph - N/A   Clear
6:53 PM 75.0 °F - 57.0 °F 53% 30.04 in 10.0 mi NE 8.1 mph - N/A   Clear
7:53 PM 73.0 °F - 59.0 °F 61% 30.06 in 10.0 mi NNE 5.8 mph - N/A   Clear
8:53 PM 72.0 °F - 57.9 °F 61% 30.08 in 10.0 mi North 6.9 mph - N/A   Clear
9:53 PM 71.1 °F - 57.9 °F 63% 30.09 in 10.0 mi North 5.8 mph - N/A   Clear
10:53 PM 70.0 °F - 57.0 °F 63% 30.09 in 10.0 mi North 5.8 mph - N/A   Clear
11:53 PM 69.1 °F - 57.9 °F 68% 30.09 in 10.0 mi North 4.6 mph - N/A   Clear